Flag for Australia Weather past 2 weeks in Mildura, Victoria, Australia

Now
41 °F

Overcast.


Feels Like: 39 °F
Forecast: 40 / 57 °F
Wind: 3 mph from West

Location: Mildura Airport

Current Time: Jul 1, 2015 at 10:29:09 AM

Latest Report: Jul 1, 2015 at 9:00 AM


Visibility: 25 mi

Pressure: 30.45 "Hg

Humidity: 85%

Dew point: 37 °F

Location of MilduraLocation

Historic Weather in Mildura — Graph

°F

Mildura temperature yesterday

Maximum temperature yesterday: 56 °F (at 4:00 PM)
Minimum temperature yesterday: 39 °F (at 11:00 PM)
Average temperature yesterday: 48 °F

Past Weeks' High & Low Weather Summary

 TemperatureHumidityPressure
High66 °F (Jun 23, 3:00 PM)100% (Jun 19, 6:00 AM)30.58 "Hg (Jun 19, 6:00 AM)
Low29 °F (Jun 21, 7:00 AM)41% (Jun 23, 3:00 PM)29.94 "Hg (Jun 17, 5:00 AM)
Average49 °F80%30.30 "Hg
* Reported Jun 16 9:00 AM — Jul 1 9:00 AM, Mildura, Weather by CustomWeather, © 2015

Note: Actual official high and low records may vary slightly from our data, if they occured in-between our weather recording intervals... More about our weather records

Advertising

Mildura weather history for previous 24 hours

 ConditionsComfort  
Time TempWeatherWind HumidityBarometerVisibility
9:00 AM
Wed, Jul 1
41 °FOvercast.3 mph85%30.45 "Hg25 mi
8:00 AM35 °FChilly.2 mph96%30.44 "HgN/A
7:00 AM32 °FChilly.2 mph96%30.42 "HgN/A
6:00 AM31 °FPassing clouds.3 mph96%30.41 "HgN/A
5:00 AM32 °FChilly.No wind95%30.40 "HgN/A
4:00 AM32 °FChilly.5 mph95%30.40 "HgN/A
2:00 AM35 °FChilly.No wind92%30.40 "HgN/A
12:00 AM38 °FPassing clouds.5 mph87%30.43 "HgN/A
11:00 PM
Tue, Jun 30
39 °FChilly.5 mph83%30.44 "HgN/A
10:00 PM40 °FQuite cool.3 mph83%30.44 "HgN/A
9:00 PM41 °FPassing clouds.5 mph80%30.43 "HgN/A
8:00 PM44 °FQuite cool.5 mph73%30.42 "HgN/A
7:00 PM46 °FCool.6 mph70%30.40 "HgN/A
6:00 PM51 °FOvercast.8 mph61%30.40 "HgN/A
5:00 PM53 °FCool.7 mph58%30.38 "HgN/A
4:00 PM56 °FRefreshingly cool.6 mph51%30.37 "HgN/A
3:00 PM55 °FOvercast.7 mph51%30.36 "Hg25 mi
2:00 PM55 °FCool.8 mph54%30.38 "HgN/A
1:00 PM54 °FCool.8 mph61%30.39 "HgN/A
12:00 PM54 °FOvercast.8 mph65%30.42 "HgN/A
11:00 AM52 °FCool.7 mph72%30.43 "HgN/A
10:00 AM49 °FCool.6 mph77%30.43 "HgN/A
Weather by CustomWeather, © 2015

See weather overviewHow to use our weather pages